Elk River (Missouri), Tiff City (07189000)

StateMissouriCurrentLow (3950 cfs)
RiverElk RiverFlood - The river is flooding. Obstacles can be treacherous or deadly. The river should be avoided at this stage for casual trips and definitely for the inexperienced. Trips should be attempted only with protective gear and equipment.Flood(none)
Updated2019-10-13 18:30 (1 hour ago)High - The river is high and potentially dangerous, especially for the young and / or inexperienced. Normal stream obstacles are sometimes difficult to navigate. Extended distances can be attempted, but canoe travel may not be advisable.High(none)
Discharge3950 cfs (median: 152 cfs)Good - Conditions are ideal for a canoe or kayak. Boats typically will drag on fewer than one-quarter of riffles, if at all, and portages are unnecessary or rare. Normal float lengths can be attempted without a problem.Good(none)
Height7.36 feetLow - River is low but can still be floated. Some riffles are okay but most come with significant dragging and might need a portage. Float lengths should be reduced to accommodate low flow, dragging, and portages.Low250
TrendFalling (falling over 24 hours)Poor - River is too low to float comfortably. Most or all riffles will drag or must be portaged and some obstacles (such as slick shelf rock) cause undue problems. Avoid the river at this stage for casual paddling trips.Poor(none)
USGSExternal icon USGS Site for Tiff City (07189000)LocationExternal icon Google Maps

Trending Data

Plot Image
ObservationHeightDischargeMaximum
Discharge
Minimum
Discharge
Mean
Discharge
P05P10P20P25P50
(Median)
P75P80P90P95
2019-10-13 18:30 7.36 3950 6220 (1963) 18 (1957) 379 41 58 77 89 152 381 463 712 1300
2019-10-13 17:30 7.40 4000 6220 (1963) 18 (1957) 379 41 58 77 89 152 381 463 712 1300
2019-10-13 16:30 7.45 4060 6220 (1963) 18 (1957) 379 41 58 77 89 152 381 463 712 1300
2019-10-13 15:30 7.51 4140 6220 (1963) 18 (1957) 379 41 58 77 89 152 381 463 712 1300
2019-10-13 14:30 7.57 4210 6220 (1963) 18 (1957) 379 41 58 77 89 152 381 463 712 1300
2019-10-13 13:30 7.61 4260 6220 (1963) 18 (1957) 379 41 58 77 89 152 381 463 712 1300
2019-10-13 12:30 7.67 4340 6220 (1963) 18 (1957) 379 41 58 77 89 152 381 463 712 1300
2019-10-13 11:30 7.71 4390 6220 (1963) 18 (1957) 379 41 58 77 89 152 381 463 712 1300
2019-10-13 10:30 7.76 4450 6220 (1963) 18 (1957) 379 41 58 77 89 152 381 463 712 1300
2019-10-13 09:30 7.82 4530 6220 (1963) 18 (1957) 379 41 58 77 89 152 381 463 712 1300
2019-10-13 08:30 7.88 4610 6220 (1963) 18 (1957) 379 41 58 77 89 152 381 463 712 1300
2019-10-13 07:30 7.94 4690 6220 (1963) 18 (1957) 379 41 58 77 89 152 381 463 712 1300
2019-10-13 06:30 8.00 4770 6220 (1963) 18 (1957) 379 41 58 77 89 152 381 463 712 1300
2019-10-13 05:30 8.07 4860 6220 (1963) 18 (1957) 379 41 58 77 89 152 381 463 712 1300
2019-10-13 04:30 8.14 4960 6220 (1963) 18 (1957) 379 41 58 77 89 152 381 463 712 1300
2019-10-13 03:30 8.21 5050 6220 (1963) 18 (1957) 379 41 58 77 89 152 381 463 712 1300
2019-10-13 02:30 8.28 5150 6220 (1963) 18 (1957) 379 41 58 77 89 152 381 463 712 1300
2019-10-13 01:30 8.37 5270 6220 (1963) 18 (1957) 379 41 58 77 89 152 381 463 712 1300
2019-10-13 00:30 8.45 5390 6220 (1963) 18 (1957) 379 41 58 77 89 152 381 463 712 1300
2019-10-12 23:30 8.52 5490 2900 (2010) 18 (1957) 314 41 58 76 90 144 296 428 774 1560
2019-10-12 22:30 8.62 5630 2900 (2010) 18 (1957) 314 41 58 76 90 144 296 428 774 1560
2019-10-12 21:30 8.69 5730 2900 (2010) 18 (1957) 314 41 58 76 90 144 296 428 774 1560
2019-10-12 20:30 8.81 5910 2900 (2010) 18 (1957) 314 41 58 76 90 144 296 428 774 1560
2019-10-12 19:30 8.87 6000 2900 (2010) 18 (1957) 314 41 58 76 90 144 296 428 774 1560
2019-10-12 18:30 9.01 6210 2900 (2010) 18 (1957) 314 41 58 76 90 144 296 428 774 1560
2019-10-12 17:30 9.13 6390 2900 (2010) 18 (1957) 314 41 58 76 90 144 296 428 774 1560
2019-10-12 16:30 9.21 6520 2900 (2010) 18 (1957) 314 41 58 76 90 144 296 428 774 1560
2019-10-12 15:30 9.39 6800 2900 (2010) 18 (1957) 314 41 58 76 90 144 296 428 774 1560
2019-10-12 14:30 9.52 7010 2900 (2010) 18 (1957) 314 41 58 76 90 144 296 428 774 1560
2019-10-12 13:30 9.66 7240 2900 (2010) 18 (1957) 314 41 58 76 90 144 296 428 774 1560
2019-10-12 12:30 9.81 7490 2900 (2010) 18 (1957) 314 41 58 76 90 144 296 428 774 1560
2019-10-12 11:30 9.99 7790 2900 (2010) 18 (1957) 314 41 58 76 90 144 296 428 774 1560
2019-10-12 10:30 10.19 8140 2900 (2010) 18 (1957) 314 41 58 76 90 144 296 428 774 1560
2019-10-12 09:30 10.41 8530 2900 (2010) 18 (1957) 314 41 58 76 90 144 296 428 774 1560
2019-10-12 08:30 10.72 9090 2900 (2010) 18 (1957) 314 41 58 76 90 144 296 428 774 1560
2019-10-12 07:30 11.00 9610 2900 (2010) 18 (1957) 314 41 58 76 90 144 296 428 774 1560
2019-10-12 06:30 11.34 10300 2900 (2010) 18 (1957) 314 41 58 76 90 144 296 428 774 1560
2019-10-12 05:30 11.73 11000 2900 (2010) 18 (1957) 314 41 58 76 90 144 296 428 774 1560
2019-10-12 04:30 12.17 12000 2900 (2010) 18 (1957) 314 41 58 76 90 144 296 428 774 1560
2019-10-12 03:30 12.68 13100 2900 (2010) 18 (1957) 314 41 58 76 90 144 296 428 774 1560
2019-10-12 02:30 13.31 14500 2900 (2010) 18 (1957) 314 41 58 76 90 144 296 428 774 1560
2019-10-12 01:30 14.04 16200 2900 (2010) 18 (1957) 314 41 58 76 90 144 296 428 774 1560
2019-10-12 00:30 14.72 18000 2900 (2010) 18 (1957) 314 41 58 76 90 144 296 428 774 1560
2019-10-11 23:30 15.41 19800 4770 (2010) 19 (1957) 361 42 59 75 81 139 269 363 846 1550
2019-10-11 22:30 16.07 21700 4770 (2010) 19 (1957) 361 42 59 75 81 139 269 363 846 1550
2019-10-11 21:30 16.57 23500 4770 (2010) 19 (1957) 361 42 59 75 81 139 269 363 846 1550
2019-10-11 20:30 16.80 24300 4770 (2010) 19 (1957) 361 42 59 75 81 139 269 363 846 1550
2019-10-11 19:30 16.87 24600 4770 (2010) 19 (1957) 361 42 59 75 81 139 269 363 846 1550
2019-10-11 18:30 16.69 23900 4770 (2010) 19 (1957) 361 42 59 75 81 139 269 363 846 1550
2019-10-11 17:30 16.61 23600 4770 (2010) 19 (1957) 361 42 59 75 81 139 269 363 846 1550
2019-10-11 16:30 16.34 22600 4770 (2010) 19 (1957) 361 42 59 75 81 139 269 363 846 1550
2019-10-11 15:30 15.84 21000 4770 (2010) 19 (1957) 361 42 59 75 81 139 269 363 846 1550
2019-10-11 14:30 15.26 19400 4770 (2010) 19 (1957) 361 42 59 75 81 139 269 363 846 1550
2019-10-11 13:30 14.63 17700 4770 (2010) 19 (1957) 361 42 59 75 81 139 269 363 846 1550
2019-10-11 12:30 13.87 15800 4770 (2010) 19 (1957) 361 42 59 75 81 139 269 363 846 1550
2019-10-11 11:30 13.08 14000 4770 (2010) 19 (1957) 361 42 59 75 81 139 269 363 846 1550
2019-10-11 10:30 12.36 12400 4770 (2010) 19 (1957) 361 42 59 75 81 139 269 363 846 1550
2019-10-11 09:30 11.75 11100 4770 (2010) 19 (1957) 361 42 59 75 81 139 269 363 846 1550
2019-10-11 08:30 11.22 10000 4770 (2010) 19 (1957) 361 42 59 75 81 139 269 363 846 1550
2019-10-11 07:30 10.65 8960 4770 (2010) 19 (1957) 361 42 59 75 81 139 269 363 846 1550
2019-10-11 06:30 1 7810 4770 (2010) 19 (1957) 361 42 59 75 81 139 269 363 846 1550
2019-10-11 05:30 9.24 6560 4770 (2010) 19 (1957) 361 42 59 75 81 139 269 363 846 1550
2019-10-11 04:30 8.46 5400 4770 (2010) 19 (1957) 361 42 59 75 81 139 269 363 846 1550
2019-10-11 03:30 7.75 4440 4770 (2010) 19 (1957) 361 42 59 75 81 139 269 363 846 1550
2019-10-11 02:30 7.27 3850 4770 (2010) 19 (1957) 361 42 59 75 81 139 269 363 846 1550
2019-10-11 01:30 7.00 3530 4770 (2010) 19 (1957) 361 42 59 75 81 139 269 363 846 1550
2019-10-11 00:30 6.87 3370 4770 (2010) 19 (1957) 361 42 59 75 81 139 269 363 846 1550
2019-10-10 23:30 6.66 3120 16400 (2010) 24 (1957) 514 43 59 72 80 139 281 384 950 1560
2019-10-10 22:30 6.33 2730 16400 (2010) 24 (1957) 514 43 59 72 80 139 281 384 950 1560
2019-10-10 21:30 6.05 2390 16400 (2010) 24 (1957) 514 43 59 72 80 139 281 384 950 1560
2019-10-10 20:30 5.92 2240 16400 (2010) 24 (1957) 514 43 59 72 80 139 281 384 950 1560
2019-10-10 19:30 5.77 2060 16400 (2010) 24 (1957) 514 43 59 72 80 139 281 384 950 1560
2019-10-10 18:30 5.73 2020 16400 (2010) 24 (1957) 514 43 59 72 80 139 281 384 950 1560
2019-10-10 17:30 5.70 1980 16400 (2010) 24 (1957) 514 43 59 72 80 139 281 384 950 1560
2019-10-10 16:30 5.70 1980 16400 (2010) 24 (1957) 514 43 59 72 80 139 281 384 950 1560
2019-10-10 15:30 5.71 1990 16400 (2010) 24 (1957) 514 43 59 72 80 139 281 384 950 1560
2019-10-10 14:30 5.74 2030 16400 (2010) 24 (1957) 514 43 59 72 80 139 281 384 950 1560
2019-10-10 13:30 5.76 2050 16400 (2010) 24 (1957) 514 43 59 72 80 139 281 384 950 1560
2019-10-10 12:30 5.77 2060 16400 (2010) 24 (1957) 514 43 59 72 80 139 281 384 950 1560
2019-10-10 11:30 5.78 2070 16400 (2010) 24 (1957) 514 43 59 72 80 139 281 384 950 1560
2019-10-10 10:30 5.80 2100 16400 (2010) 24 (1957) 514 43 59 72 80 139 281 384 950 1560
2019-10-10 09:30 5.81 2110 16400 (2010) 24 (1957) 514 43 59 72 80 139 281 384 950 1560
2019-10-10 08:30 5.83 2130 16400 (2010) 24 (1957) 514 43 59 72 80 139 281 384 950 1560
2019-10-10 07:30 5.86 2170 16400 (2010) 24 (1957) 514 43 59 72 80 139 281 384 950 1560
2019-10-10 06:30 5.88 2190 16400 (2010) 24 (1957) 514 43 59 72 80 139 281 384 950 1560
2019-10-10 05:30 5.90 2220 16400 (2010) 24 (1957) 514 43 59 72 80 139 281 384 950 1560
2019-10-10 04:30 5.92 2240 16400 (2010) 24 (1957) 514 43 59 72 80 139 281 384 950 1560
2019-10-10 03:30 5.95 2270 16400 (2010) 24 (1957) 514 43 59 72 80 139 281 384 950 1560
2019-10-10 02:30 5.97 2300 16400 (2010) 24 (1957) 514 43 59 72 80 139 281 384 950 1560
2019-10-10 01:30 5.99 2320 16400 (2010) 24 (1957) 514 43 59 72 80 139 281 384 950 1560
2019-10-10 00:30 6.02 2360 16400 (2010) 24 (1957) 514 43 59 72 80 139 281 384 950 1560
2019-10-09 23:30 6.05 2390 20700 (2010) 26 (1957) 596 44 59 74 82 137 295 371 1070 1700
2019-10-09 22:30 6.08 2430 20700 (2010) 26 (1957) 596 44 59 74 82 137 295 371 1070 1700
2019-10-09 21:30 6.10 2450 20700 (2010) 26 (1957) 596 44 59 74 82 137 295 371 1070 1700
2019-10-09 20:30 6.13 2490 20700 (2010) 26 (1957) 596 44 59 74 82 137 295 371 1070 1700
2019-10-09 19:30 6.15 2510 20700 (2010) 26 (1957) 596 44 59 74 82 137 295 371 1070 1700
2019-10-09 18:30 6.18 2550 20700 (2010) 26 (1957) 596 44 59 74 82 137 295 371 1070 1700
2019-10-09 17:30 6.21 2580 20700 (2010) 26 (1957) 596 44 59 74 82 137 295 371 1070 1700
2019-10-09 16:30 6.23 2610 20700 (2010) 26 (1957) 596 44 59 74 82 137 295 371 1070 1700
2019-10-09 15:30 6.26 2640 20700 (2010) 26 (1957) 596 44 59 74 82 137 295 371 1070 1700
2019-10-09 14:30 6.29 2680 20700 (2010) 26 (1957) 596 44 59 74 82 137 295 371 1070 1700
2019-10-09 13:30 6.32 2710 20700 (2010) 26 (1957) 596 44 59 74 82 137 295 371 1070 1700
2019-10-09 12:30 6.35 2750 20700 (2010) 26 (1957) 596 44 59 74 82 137 295 371 1070 1700
2019-10-09 11:30 6.38 2780 20700 (2010) 26 (1957) 596 44 59 74 82 137 295 371 1070 1700
2019-10-09 10:30 6.42 2830 20700 (2010) 26 (1957) 596 44 59 74 82 137 295 371 1070 1700
2019-10-09 09:30 6.45 2870 20700 (2010) 26 (1957) 596 44 59 74 82 137 295 371 1070 1700
2019-10-09 08:30 6.48 2900 20700 (2010) 26 (1957) 596 44 59 74 82 137 295 371 1070 1700
2019-10-09 07:30 6.52 2950 20700 (2010) 26 (1957) 596 44 59 74 82 137 295 371 1070 1700
2019-10-09 06:30 6.56 3000 20700 (2010) 26 (1957) 596 44 59 74 82 137 295 371 1070 1700
2019-10-09 05:30 6.60 3050 20700 (2010) 26 (1957) 596 44 59 74 82 137 295 371 1070 1700
2019-10-09 04:30 6.64 3100 20700 (2010) 26 (1957) 596 44 59 74 82 137 295 371 1070 1700
2019-10-09 03:30 6.68 3140 20700 (2010) 26 (1957) 596 44 59 74 82 137 295 371 1070 1700
2019-10-09 02:30 6.73 3200 20700 (2010) 26 (1957) 596 44 59 74 82 137 295 371 1070 1700
2019-10-09 01:30 6.78 3260 20700 (2010) 26 (1957) 596 44 59 74 82 137 295 371 1070 1700
2019-10-09 00:30 6.82 3310 20700 (2010) 26 (1957) 596 44 59 74 82 137 295 371 1070 1700
2019-10-08 23:30 6.87 3370 6280 (1963) 24 (1940) 377 42 59 73 84 142 277 412 964 1600
2019-10-08 22:30 6.93 3440 6280 (1963) 24 (1940) 377 42 59 73 84 142 277 412 964 1600
2019-10-08 21:30 6.98 3500 6280 (1963) 24 (1940) 377 42 59 73 84 142 277 412 964 1600
2019-10-08 20:30 7.04 3570 6280 (1963) 24 (1940) 377 42 59 73 84 142 277 412 964 1600
2019-10-08 19:30 7.10 3640 6280 (1963) 24 (1940) 377 42 59 73 84 142 277 412 964 1600
2019-10-08 18:30 7.16 3710 6280 (1963) 24 (1940) 377 42 59 73 84 142 277 412 964 1600
2019-10-08 17:30 7.23 3800 6280 (1963) 24 (1940) 377 42 59 73 84 142 277 412 964 1600
2019-10-08 16:30 7.29 3870 6280 (1963) 24 (1940) 377 42 59 73 84 142 277 412 964 1600
2019-10-08 15:30 7.36 3950 6280 (1963) 24 (1940) 377 42 59 73 84 142 277 412 964 1600
2019-10-08 14:30 7.44 4050 6280 (1963) 24 (1940) 377 42 59 73 84 142 277 412 964 1600
2019-10-08 13:30 7.51 4140 6280 (1963) 24 (1940) 377 42 59 73 84 142 277 412 964 1600
2019-10-08 12:30 7.58 4220 6280 (1963) 24 (1940) 377 42 59 73 84 142 277 412 964 1600
2019-10-08 11:30 7.66 4330 6280 (1963) 24 (1940) 377 42 59 73 84 142 277 412 964 1600
2019-10-08 10:30 7.74 4430 6280 (1963) 24 (1940) 377 42 59 73 84 142 277 412 964 1600
2019-10-08 09:30 7.83 4540 6280 (1963) 24 (1940) 377 42 59 73 84 142 277 412 964 1600
2019-10-08 08:30 7.90 4640 6280 (1963) 24 (1940) 377 42 59 73 84 142 277 412 964 1600
2019-10-08 07:30 8.02 4790 6280 (1963) 24 (1940) 377 42 59 73 84 142 277 412 964 1600
2019-10-08 06:30 8.08 4880 6280 (1963) 24 (1940) 377 42 59 73 84 142 277 412 964 1600
2019-10-08 05:30 8.18 5010 6280 (1963) 24 (1940) 377 42 59 73 84 142 277 412 964 1600
2019-10-08 04:30 8.31 5190 6280 (1963) 24 (1940) 377 42 59 73 84 142 277 412 964 1600
2019-10-08 03:30 8.39 5300 6280 (1963) 24 (1940) 377 42 59 73 84 142 277 412 964 1600
2019-10-08 02:30 8.52 5490 6280 (1963) 24 (1940) 377 42 59 73 84 142 277 412 964 1600
2019-10-08 01:30 8.68 5720 6280 (1963) 24 (1940) 377 42 59 73 84 142 277 412 964 1600
2019-10-08 00:30 8.85 5970 6280 (1963) 24 (1940) 377 42 59 73 84 142 277 412 964 1600
2019-10-07 23:30 9.01 6210 5570 (1963) 24 (1957) 408 43 59 75 87 143 280 398 1020 2000
2019-10-07 22:30 9.17 6460 5570 (1963) 24 (1957) 408 43 59 75 87 143 280 398 1020 2000
2019-10-07 21:30 9.35 6740 5570 (1963) 24 (1957) 408 43 59 75 87 143 280 398 1020 2000
2019-10-07 20:30 9.57 7090 5570 (1963) 24 (1957) 408 43 59 75 87 143 280 398 1020 2000
2019-10-07 19:30 9.87 7590 5570 (1963) 24 (1957) 408 43 59 75 87 143 280 398 1020 2000
2019-10-07 18:30 10.12 8020 5570 (1963) 24 (1957) 408 43 59 75 87 143 280 398 1020 2000
2019-10-07 17:30 10.47 8630 5570 (1963) 24 (1957) 408 43 59 75 87 143 280 398 1020 2000
2019-10-07 16:30 10.94 9500 5570 (1963) 24 (1957) 408 43 59 75 87 143 280 398 1020 2000
2019-10-07 15:30 11.46 10500 5570 (1963) 24 (1957) 408 43 59 75 87 143 280 398 1020 2000
2019-10-07 14:30 12.08 11800 5570 (1963) 24 (1957) 408 43 59 75 87 143 280 398 1020 2000
2019-10-07 13:30 12.79 13300 5570 (1963) 24 (1957) 408 43 59 75 87 143 280 398 1020 2000
2019-10-07 12:30 13.52 15000 5570 (1963) 24 (1957) 408 43 59 75 87 143 280 398 1020 2000
2019-10-07 11:30 14.18 16600 5570 (1963) 24 (1957) 408 43 59 75 87 143 280 398 1020 2000
2019-10-07 10:30 14.76 18100 5570 (1963) 24 (1957) 408 43 59 75 87 143 280 398 1020 2000
2019-10-07 09:30 15.20 19200 5570 (1963) 24 (1957) 408 43 59 75 87 143 280 398 1020 2000
2019-10-07 08:30 15.51 20100 5570 (1963) 24 (1957) 408 43 59 75 87 143 280 398 1020 2000
2019-10-07 07:30 15.77 20800 5570 (1963) 24 (1957) 408 43 59 75 87 143 280 398 1020 2000
2019-10-07 06:30 15.89 21100 5570 (1963) 24 (1957) 408 43 59 75 87 143 280 398 1020 2000
2019-10-07 05:30 15.89 21100 5570 (1963) 24 (1957) 408 43 59 75 87 143 280 398 1020 2000
2019-10-07 04:30 15.80 20900 5570 (1963) 24 (1957) 408 43 59 75 87 143 280 398 1020 2000
2019-10-07 03:30 15.63 20400 5570 (1963) 24 (1957) 408 43 59 75 87 143 280 398 1020 2000
2019-10-07 02:30 15.43 19900 5570 (1963) 24 (1957) 408 43 59 75 87 143 280 398 1020 2000
2019-10-07 01:30 15.09 18900 5570 (1963) 24 (1957) 408 43 59 75 87 143 280 398 1020 2000
2019-10-07 00:30 14.71 17900 5570 (1963) 24 (1957) 408 43 59 75 87 143 280 398 1020 2000
2019-10-06 23:30 14.49 17400 7880 (1999) 22 (1957) 435 48 60 71 79 143 252 369 977 2550
2019-10-06 22:30 14.34 17000 7880 (1999) 22 (1957) 435 48 60 71 79 143 252 369 977 2550
2019-10-06 21:30 14.31 16900 7880 (1999) 22 (1957) 435 48 60 71 79 143 252 369 977 2550
2019-10-06 20:30 14.05 16300 7880 (1999) 22 (1957) 435 48 60 71 79 143 252 369 977 2550
2019-10-06 19:30 13.57 15100 7880 (1999) 22 (1957) 435 48 60 71 79 143 252 369 977 2550
2019-10-06 18:30 13.03 13800 7880 (1999) 22 (1957) 435 48 60 71 79 143 252 369 977 2550
2019-10-06 17:30 12.27 12200 7880 (1999) 22 (1957) 435 48 60 71 79 143 252 369 977 2550
2019-10-06 16:30 11.02 9650 7880 (1999) 22 (1957) 435 48 60 71 79 143 252 369 977 2550
2019-10-06 15:30 9.68 7270 7880 (1999) 22 (1957) 435 48 60 71 79 143 252 369 977 2550
2019-10-06 14:30 8.36 5260 7880 (1999) 22 (1957) 435 48 60 71 79 143 252 369 977 2550
2019-10-06 13:30 7.06 3600 7880 (1999) 22 (1957) 435 48 60 71 79 143 252 369 977 2550
2019-10-06 12:30 5.64 1910 7880 (1999) 22 (1957) 435 48 60 71 79 143 252 369 977 2550
2019-10-06 11:30 4.60 891 7880 (1999) 22 (1957) 435 48 60 71 79 143 252 369 977 2550
2019-10-06 10:30 4.14 591 7880 (1999) 22 (1957) 435 48 60 71 79 143 252 369 977 2550
2019-10-06 09:30 3.86 447 7880 (1999) 22 (1957) 435 48 60 71 79 143 252 369 977 2550
2019-10-06 08:30 3.73 389 7880 (1999) 22 (1957) 435 48 60 71 79 143 252 369 977 2550
2019-10-06 07:30 3.68 368 7880 (1999) 22 (1957) 435 48 60 71 79 143 252 369 977 2550
2019-10-06 06:30 3.64 352 7880 (1999) 22 (1957) 435 48 60 71 79 143 252 369 977 2550
2019-10-06 05:30 3.61 341 7880 (1999) 22 (1957) 435 48 60 71 79 143 252 369 977 2550
2019-10-06 04:30 3.59 333 7880 (1999) 22 (1957) 435 48 60 71 79 143 252 369 977 2550
2019-10-06 03:30 3.56 322 7880 (1999) 22 (1957) 435 48 60 71 79 143 252 369 977 2550
2019-10-06 02:30 3.50 300 7880 (1999) 22 (1957) 435 48 60 71 79 143 252 369 977 2550
2019-10-06 01:30 3.49 296 7880 (1999) 22 (1957) 435 48 60 71 79 143 252 369 977 2550
2019-10-06 00:30 3.50 300 7880 (1999) 22 (1957) 435 48 60 71 79 143 252 369 977 2550

A total of 187 rows are displayed for years 1940 through 2019.

Trips for Elk River (Missouri), Tiff City (07189000)

DateStartEndDistanceConditionDischargeHeightFishingDetails
Click for details2010-08-07 Rt DD MO 43 Total trip distance: 9.0 miles9.0 Low 238 3.56 None NoneNone Bowe, Michelle
Edmond, Brian
Bowe, Michelle; Edmond, Brian
No notes for this trip<i>No notes for this trip</i> USGS Gauge Data:
Tiff City (07189000)
Discharge: 238
Height: 3.56
<b>USGS Gauge Data:</b></br />Tiff City (07189000)<br />Discharge: 238<br />Height: 3.56
Source: EdmondSource: Edmond

A total of 1 rows are displayed.

Trip Summary for Elk River (Missouri), Tiff City (07189000)

Miles9
Trips1
People2
Dates1
Years1
Months1
Rows1
Sources1

Condition Descriptions

Fishing Conditions

Fish Species

Notes

Classic Trip List

The classic River Trips application is still available for use. It is updated with the new system using a data retrofit. It is no longer maintained. The original River Trips application is no longer updated (as of 1 Dec 2016) but can be checked for errors or for the condition of the data before it was converted to the new system.